Hourly Data Report for November 19, 2017

All times are specified in Local Standard Time (LST). Add 1 hour to adjust for Daylight Saving Time where and when it is observed.

GIMLI CLIMATE
MANITOBA

50°38'00.000" N
97°03'00.000" W
230.10 m
5031042
71748
PGH

Download Data

Hourly Data (November 2017)
Hourly Data Report for November 19, 2017
Temp Definition
°C
Dew Point Temp Definition
°C
Rel Hum Definition
%
Wind Dir Definition
10's deg

Wind Spd Definition
km/h
Visibility Definition
km
Stn Press Definition
kPa
Hmdx Definition


Wind Chill Definition


Weather Definition


TIME
00:00 -17.8 -20.2 81 26 15   98.66   -26 LegendNANA
01:00 -15.6 -18.6 78 26 14   98.63   -23 LegendNANA
02:00 -16.8 -19.2 82 25 10   98.59   -23 LegendNANA
03:00 -17.8 -20.0 83 25 8   98.57   -24 LegendNANA
04:00 -16.6 -18.5 85 26 12   98.58   -24 LegendNANA
05:00 -15.8 -18.4 81 26 6   98.54   -20 LegendNANA
06:00 -14.8 -17.3 81 25 4   98.52   -18 LegendNANA
07:00 -14.0 -16.5 81 24 3   98.49   -16 LegendNANA
08:00 -13.4 -15.8 82 20 7   98.46   -18 LegendNANA
09:00 -12.7 -15.5 79 23 3   98.42   -15 LegendNANA
10:00 -11.5 -14.8 76 21 4   98.42   -14 LegendNANA
11:00 -9.3 -14.5 66 18 1   98.40   -10 LegendNANA
12:00 -9.1 -16.5 55 0 1   98.36   -10 LegendNANA
13:00 -7.4 -14.8 55 16 7   98.30   -11 LegendNANA
14:00 -7.4 -14.0 59 17 8   98.27   -11 LegendNANA
15:00 -7.2 -14.0 58 15 9   98.20   -12 LegendNANA
16:00 -7.8 -13.7 62 17 5   98.19   -10 LegendNANA
17:00 -9.4 -14.3 68 18 7   98.16   -13 LegendNANA
18:00 -11.3 -14.7 76 22 6   98.12   -15 LegendNANA
19:00 -11.0 -14.0 78 16 2   98.05   -12 LegendNANA
20:00 -12.3 -15.1 79 15 3   98.00   -14 LegendNANA
21:00 -10.7 -13.3 81 17 6   97.93   -14 LegendNANA
22:00 -10.8 -13.3 82 12 2   97.82   -12 LegendNANA
23:00 -10.0 -12.4 83 20 3   97.82   -12 LegendNANA

Notes on Data Quality.

Legend

  • E = Estimated
  • M = Missing
  • NA = Not Available
  • ‡ = Partner data that is not subject to review by the National Climate Archives
Date modified: